Regional Weather Roundup
Issued by NWS Goodland, KS

Home | Current Version | Previous Version | Text Only | Print | Product List | Glossary On
Versions: 1 2 3 4 5 6 7 8 9 10 11 12 13 14 15 16 17 18 19 20 21 22 23 24 25 26 27 28 29 30 31 32 33 34 35 36 37 38 39 40 41 42 43 44 45 46 47 48 49 50
000
ASUS43 KGLD 221608
RWRGLD

GOODLAND FORECAST AREA HOURLY WEATHER ROUNDUP
NATIONAL WEATHER SERVICE GOODLAND KS
900 AM MST THU FEB 22 2018

...OFFICIAL OBSERVATIONS...

CITY           SKY/WX    TMP DP  RH WIND       PRES   REMARKS
GOODLAND KS    CLOUDY    20  10  65 S10       30.13F WCI   9
HILL CITY KS   CLOUDY    22  21  96 E7        30.27F
IMPERIAL NEB   CLOUDY    21  11  65 SE10      30.18F WCI  10
MCCOOK NEB     CLOUDY    22  16  78 SE7       30.24F
AKRON CO       CLOUDY    17   7  64 S14       30.04F WCI   3
BURLINGTON CO  PTSUNNY   18   9  68 SE10      30.09F WCI   6
LIMON CO       MOSUNNY   16   8  71 S10       30.01F WCI   4
$$

...UNOFFICIAL OBSERVATIONS...

CITY           SKY/WX    TMP DP  RH WIND       PRES   REMARKS
COLBY KS       CLOUDY    21  18  86 S7        30.20F
YUMA CO        CLOUDY    19   7  58 S12       30.09F WCI   7
$$




USA.gov is the U.S. government's official web portal to all federal, state and local government web resources and services.